Weather History for Coldwater, MI

Change the Weather History Date:

Tuesday, February 12, 2013

  Actual Average (KJYM) Record (KJYM)
Temperature  
Mean Temperature 29 °F -  
Max Temperature 32 °F 32 °F 49 °F (1949)
Min Temperature 27 °F 12 °F -18 °F (1967)
Degree Days  
Heating Degree Days 36    
Moisture  
Dew Point 22 °F    
Average Humidity 73    
Maximum Humidity 78    
Minimum Humidity 66    
Precipitation  
Precipitation 0.00 in - - ()
Sea Level Pressure  
Sea Level Pressure 29.98 in    
Wind  
Wind Speed 13 mph (West)    
Max Wind Speed 21 mph    
Max Gust Speed 28 mph    
Visibility 10 miles    
Events      
Averages and records for this station are not official NWS values.
T = Trace of Precipitation, MM = Missing Value Source: NWS Daily Summary

Daily Weather History Graph

Daily Weather History Graph

Search for Another Location

Airport:

Trip Planner

Search our weather history database for the weather conditions in past years. The results will help you decide how hot, cold, wet, or windy it might be!

Date:

Astronomy

Feb. 12, 2013 Rise Set
Actual Time 7:39 AM EST 6:09 PM EST
Civil Twilight 7:10 AM EST 6:38 PM EST
Nautical Twilight 6:38 AM EST 7:11 PM EST
Astronomical Twilight 6:05 AM EST 7:43 PM EST
Moon 8:33 AM EST (2/12) 9:13 PM EST (2/12)
Length of Visible Light 11h 27m
Length of Day
10h 30m
Waxing Crescent, 7% of the Moon is Illuminated
Feb 12
Waxing Crescent
Feb 17
First Quarter
Feb 25
Full
Mar 4
Last Quarter
Mar 11
New

Hourly Weather History & Observations

Time (EST) Temp. Windchill Dew Point Humidity Pressure Visibility Wind Dir Wind Speed Gust Speed Precip Events Conditions
12:14 AM 30.4 °F 18.4 °F 21.4 °F 69% 29.92 in 10.0 mi West 18.4 mph 25.3 mph N/A   Overcast
12:34 AM 30.2 °F 20.2 °F 21.6 °F 70% 29.93 in 10.0 mi West 12.7 mph 24.2 mph N/A   Overcast
12:54 AM 30.2 °F 17.4 °F 21.7 °F 71% 29.93 in 10.0 mi West 20.7 mph 26.5 mph N/A   Overcast
1:14 AM 30.2 °F 18.9 °F 21.9 °F 71% 29.93 in 10.0 mi West 16.1 mph 27.6 mph N/A   Overcast
1:35 AM 30.0 °F 20.0 °F 22.3 °F 73% 29.94 in 10.0 mi West 12.7 mph 26.5 mph N/A   Overcast
1:54 AM 30.0 °F 20.5 °F 21.9 °F 72% 29.94 in 10.0 mi West 11.5 mph 24.2 mph N/A   Overcast
2:14 AM 30.0 °F 18.7 °F 22.1 °F 72% 29.95 in 10.0 mi West 16.1 mph 19.6 mph N/A   Overcast
2:35 AM 30.0 °F 18.3 °F 22.1 °F 72% 29.96 in 10.0 mi West 17.3 mph - N/A   Overcast
2:54 AM 30.0 °F 18.7 °F 21.9 °F 72% 29.97 in 10.0 mi West 16.1 mph 21.9 mph N/A   Overcast
3:14 AM 30.0 °F 20.5 °F 22.1 °F 72% 29.97 in 10.0 mi West 11.5 mph - N/A   Overcast
3:35 AM 29.8 °F 18.0 °F 21.2 °F 70% 29.98 in 10.0 mi WNW 17.3 mph 25.3 mph N/A   Overcast
3:54 AM 29.8 °F 18.4 °F 21.7 °F 72% 29.97 in 10.0 mi West 16.1 mph 23.0 mph N/A   Overcast
4:14 AM 29.7 °F 20.7 °F 22.1 °F 73% 29.98 in 10.0 mi West 10.4 mph - N/A   Overcast
4:35 AM 29.7 °F 19.6 °F 22.8 °F 76% 29.99 in 10.0 mi West 12.7 mph - N/A   Overcast
4:54 AM 29.3 °F 18.6 °F 22.8 °F 77% 29.99 in 10.0 mi West 13.8 mph 20.7 mph N/A   Overcast
5:15 AM 29.3 °F 18.2 °F 22.8 °F 77% 30.00 in 10.0 mi West 15.0 mph 19.6 mph N/A   Overcast
5:34 AM 29.3 °F 18.6 °F 22.8 °F 77% 30.00 in 10.0 mi West 13.8 mph - N/A   Overcast
5:54 AM 29.1 °F 16.4 °F 22.5 °F 76% 30.01 in 10.0 mi West 19.6 mph 26.5 mph N/A   Overcast
6:15 AM 29.1 °F 16.7 °F 22.1 °F 75% 30.01 in 10.0 mi West 18.4 mph 23.0 mph N/A   Overcast
6:34 AM 28.9 °F 16.9 °F 22.1 °F 76% 30.01 in 10.0 mi WNW 17.3 mph 21.9 mph N/A   Overcast
6:54 AM 28.8 °F 18.4 °F 22.1 °F 76% 30.01 in 10.0 mi WNW 12.7 mph 18.4 mph N/A   Overcast
7:15 AM 28.8 °F 19.5 °F 22.1 °F 76% 30.02 in 10.0 mi West 10.4 mph 16.1 mph N/A   Overcast
7:34 AM 28.8 °F 20.2 °F 22.3 °F 77% 30.02 in 10.0 mi WNW 9.2 mph - N/A   Overcast
7:54 AM 28.8 °F 19.0 °F 22.5 °F 77% 30.02 in 10.0 mi West 11.5 mph - N/A   Overcast
8:15 AM 28.4 °F 18.5 °F 22.5 °F 78% 30.03 in 10.0 mi West 11.5 mph - N/A   Overcast
8:34 AM 28.6 °F 19.9 °F 22.5 °F 78% 30.03 in 10.0 mi West 9.2 mph - N/A   Overcast
8:54 AM 28.4 °F 18.5 °F 22.1 °F 77% 30.03 in 10.0 mi West 11.5 mph - N/A   Overcast
9:15 AM 28.4 °F 18.0 °F 21.7 °F 76% 30.04 in 10.0 mi West 12.7 mph 19.6 mph N/A   Overcast
9:34 AM 28.4 °F 18.5 °F 21.4 °F 75% 30.04 in 10.0 mi West 11.5 mph - N/A   Overcast
9:54 AM 28.9 °F 18.2 °F 21.6 °F 74% 30.06 in 10.0 mi West 13.8 mph - N/A   Overcast
10:14 AM 28.4 °F 19.7 °F 21.2 °F 74% 30.04 in 10.0 mi West 9.2 mph - N/A   Overcast
10:34 AM 29.3 °F 20.2 °F 21.7 °F 73% 30.04 in 10.0 mi West 10.4 mph - N/A   Overcast
10:55 AM 29.5 °F 21.1 °F 21.9 °F 73% 30.04 in 10.0 mi West 9.2 mph - N/A   Overcast
11:14 AM 29.8 °F 20.9 °F 22.5 °F 74% 30.04 in 10.0 mi West 10.4 mph - N/A   Overcast
11:34 AM 30.2 °F 21.9 °F 22.5 °F 73% 30.03 in 10.0 mi West 9.2 mph - N/A   Overcast
11:55 AM 30.7 °F 24.1 °F 22.5 °F 71% 30.03 in 10.0 mi WSW 6.9 mph - N/A   Overcast
12:14 PM 30.7 °F 22.0 °F 22.3 °F 71% 30.03 in 10.0 mi West 10.4 mph - N/A   Overcast
12:34 PM 30.9 °F 22.2 °F 22.1 °F 70% 30.03 in 10.0 mi SW 10.4 mph - N/A   Overcast
12:54 PM 30.4 °F 21.0 °F 21.9 °F 71% 30.01 in 10.0 mi West 11.5 mph - N/A   Overcast
1:14 PM 31.1 °F 21.9 °F 21.4 °F 67% 29.98 in 10.0 mi West 11.5 mph - N/A   Overcast
1:35 PM 31.6 °F 23.7 °F 21.6 °F 66% 29.97 in 10.0 mi West 9.2 mph - N/A   Overcast
1:54 PM 31.8 °F 22.3 °F 21.6 °F 66% 29.96 in 10.0 mi West 12.7 mph - N/A   Overcast
2:14 PM 31.6 °F 24.4 °F 21.6 °F 66% 29.96 in 10.0 mi West 8.1 mph - N/A   Overcast
2:35 PM 31.8 °F 23.3 °F 21.9 °F 67% 29.96 in 10.0 mi West 10.4 mph - N/A   Overcast
2:54 PM 31.6 °F 23.7 °F 21.9 °F 67% 29.96 in 10.0 mi West 9.2 mph - N/A   Overcast
3:14 PM 31.5 °F 21.8 °F 21.7 °F 67% 29.97 in 10.0 mi West 12.7 mph - N/A   Overcast
3:35 PM 31.1 °F 21.9 °F 21.6 °F 68% 29.97 in 10.0 mi West 11.5 mph - N/A   Overcast
3:54 PM 31.1 °F 21.9 °F 21.6 °F 68% 29.97 in 10.0 mi West 11.5 mph - N/A   Overcast
4:14 PM 31.1 °F 23.7 °F 21.7 °F 68% 29.98 in 10.0 mi West 8.1 mph - N/A   Overcast
4:35 PM 30.9 °F 22.2 °F 21.7 °F 69% 29.97 in 10.0 mi West 10.4 mph - N/A   Overcast
4:54 PM 30.6 °F 23.1 °F 21.7 °F 70% 29.97 in 10.0 mi West 8.1 mph - N/A   Overcast
5:14 PM 30.4 °F 23.6 °F 21.7 °F 70% 29.96 in 10.0 mi West 6.9 mph - N/A   Overcast
5:35 PM 30.2 °F 23.4 °F 22.1 °F 72% 29.96 in 10.0 mi WNW 6.9 mph - N/A   Overcast
5:54 PM 30.0 °F 25.2 °F 21.9 °F 72% 29.96 in 10.0 mi West 4.6 mph - N/A   Overcast
6:14 PM 30.0 °F 25.2 °F 22.1 °F 72% 29.96 in 10.0 mi WNW 4.6 mph - N/A   Overcast
6:34 PM 30.0 °F 24.1 °F 22.1 °F 72% 29.96 in 10.0 mi West 5.8 mph - N/A   Overcast
6:54 PM 29.3 °F 21.5 °F 22.3 °F 75% 29.96 in 10.0 mi NW 8.1 mph - N/A   Overcast
7:15 PM 28.8 °F 20.9 °F 22.5 °F 77% 29.96 in 10.0 mi NW 8.1 mph - N/A   Overcast
7:34 PM 28.4 °F 21.2 °F 22.1 °F 77% 29.96 in 10.0 mi NW 6.9 mph - N/A   Overcast
7:54 PM 28.4 °F 20.4 °F 21.9 °F 77% 29.96 in 10.0 mi NW 8.1 mph - N/A   Overcast
8:14 PM 28.4 °F 20.4 °F 22.1 °F 77% 29.95 in 10.0 mi WNW 8.1 mph - N/A   Overcast
8:34 PM 28.2 °F 22.0 °F 22.1 °F 78% 29.95 in 10.0 mi NW 5.8 mph - N/A   Overcast
8:55 PM 28.2 °F 23.1 °F 22.3 °F 78% 29.95 in 10.0 mi WNW 4.6 mph - N/A   Overcast
9:14 PM 28.2 °F 22.0 °F 22.1 °F 78% 29.94 in 10.0 mi WNW 5.8 mph - N/A   Overcast
9:34 PM 28.2 °F 19.5 °F 21.9 °F 77% 29.94 in 10.0 mi West 9.2 mph - N/A   Overcast
9:55 PM 28.0 °F 21.7 °F 21.4 °F 76% 29.93 in 10.0 mi West 5.8 mph - N/A   Overcast
10:14 PM 28.0 °F 22.8 °F 21.4 °F 76% 29.92 in 10.0 mi WNW 4.6 mph - N/A   Overcast
10:34 PM 28.0 °F 20.0 °F 20.7 °F 74% 29.92 in 10.0 mi WNW 8.1 mph - N/A   Overcast
10:55 PM 27.9 °F 19.8 °F 20.8 °F 75% 29.93 in 10.0 mi West 8.1 mph - N/A   Overcast
11:14 PM 27.7 °F 21.3 °F 20.8 °F 75% 29.92 in 10.0 mi West 5.8 mph - N/A   Overcast
11:34 PM 27.7 °F 22.4 °F 21.0 °F 76% 29.92 in 10.0 mi WNW 4.6 mph - N/A   Overcast
11:55 PM 27.5 °F 23.6 °F 21.2 °F 77% 29.91 in 10.0 mi WNW 3.5 mph - N/A   Overcast